FW8448 Weather Reports


Display with metric or nautical units.
time (UTC)temp
F
wind
direction
speed
MPH
gust
MPH
rain 1hr
in
rain 24hr
in
rain mn
in
humidity
%
barometer
mb
20260905050106 72 0 0.0 0.0 0.00 0.00 0.00 96 1014.4
20260905044559 72 0 0.0 0.0 0.00 0.00 0.00 96 1014.5
20260905043101 72 0 0.0 0.0 0.00 0.00 0.00 96 1014.5
20260905041605 72 0 0.0 0.0 0.00 0.00 0.00 96 1014.6
20260905040105 72 0 0.0 0.0 0.00 0.00 0.00 96 1014.7
20260905034609 72 0 0.0 0.0 0.00 0.00 0.00 95 1014.7
20260905033117 73 0 0.0 0.0 0.00 0.00 0.00 95 1014.9
20260905031611 73 0 0.0 0.0 0.00 0.00 0.00 95 1014.8
20260905024604 74 0 0.0 0.0 0.00 0.00 0.00 95 1014.8
20260905023126 74 0 0.0 0.0 0.00 0.00 0.00 95 1014.7
20260905021604 74 0 0.0 0.0 0.00 0.00 0.00 94 1014.7
20260905020058 74 0 0.0 0.0 0.00 0.00 0.00 94 1014.6
20260905014604 75 0 0.0 1.0 0.00 0.00 0.00 93 1014.4
20260905013101 76 0 0.0 0.0 0.00 0.00 0.00 92 1014.4
20260905011601 76 0 0.0 0.0 0.00 0.00 0.00 91 1014.3
20260905010112 77 0 0.0 1.0 0.00 0.00 0.00 90 1014.3
20260905004620 78 0 0.0 1.0 0.00 0.00 0.00 89 1014.2
20260905003053 80 0 0.0 0.0 0.00 0.00 0.00 87 1014.2
20260905001602 81 0 0.0 1.0 0.00 0.00 0.00 85 1014.2
20260905000132 82 0 0.0 2.0 0.00 0.00 0.00 83 1014.2
20260904234607 85 205 0.0 1.0 0.00 0.00 0.00 79 1014.2
20260904233100 86 0 0.0 2.0 0.00 0.00 0.00 78 1014.3
20260904231559 86 0 1.0 4.0 0.00 0.00 0.00 78 1014.3
20260904230112 87 0 0.0 2.0 0.00 0.00 0.00 78 1014.4
20260904224600 88 0 1.0 3.0 0.00 0.00 0.00 76 1014.2
20260904223103 88 0 1.0 3.0 0.00 0.00 0.00 78 1014.3
20260904221602 87 164 1.0 7.0 0.00 0.00 0.00 78 1014.3
20260904214607 87 194 2.0 7.0 0.00 0.00 0.00 79 1014.1
20260904213102 86 138 3.0 9.0 0.00 0.00 0.00 78 1014.1
20260904211601 86 269 2.0 6.0 0.00 0.00 0.00 79 1014.6
20260904210058 85 0 2.0 11.0 0.00 0.00 0.00 79 1014.9
20260904204602 85 94 2.0 9.0 0.00 0.00 0.00 80 1014.7
20260904203102 84 94 3.0 10.0 0.00 0.00 0.00 82 1014.9
20260904201624 86 53 7.0 18.0 0.00 0.00 0.00 78 1015.4
20260904194556 95 275 4.0 9.0 0.00 0.00 0.00 65 1014.6
20260904193101 94 255 2.0 11.0 0.00 0.00 0.00 66 1014.7
20260904191602 94 285 5.0 11.0 0.00 0.00 0.00 63 1014.9
20260904184557 94 284 1.0 8.0 0.00 0.00 0.00 65 1015.5
20260904183116 93 275 3.0 12.0 0.00 0.00 0.00 65 1015.8
20260904181600 93 273 4.0 12.0 0.00 0.00 0.00 67 1015.9
20260904174559 93 0 2.0 9.0 0.00 0.00 0.00 65 1016.3
20260904173058 93 267 3.0 8.0 0.00 0.00 0.00 66 1016.3
20260904171616 92 274 3.0 11.0 0.00 0.00 0.00 70 1016.5
20260904170110 91 291 4.0 10.0 0.00 0.00 0.00 69 1016.7
20260904164631 91 269 3.0 15.0 0.00 0.00 0.00 69 1016.9
20260904163102 91 272 3.0 10.0 0.00 0.00 0.00 72 1016.8
20260904161600 91 293 3.0 12.0 0.00 0.00 0.00 71 1016.8
20260904160110 90 270 5.0 10.0 0.00 0.00 0.00 72 1016.8
20260904154605 89 285 2.0 11.0 0.00 0.00 0.00 74 1017.0
20260904153111 89 281 3.0 11.0 0.00 0.00 0.00 75 1016.8
20260904151600 88 281 2.0 10.0 0.00 0.00 0.00 75 1017.0
20260904144603 87 285 4.0 10.0 0.00 0.00 0.00 78 1016.8
20260904143102 85 281 1.0 8.0 0.00 0.00 0.00 80 1016.8
20260904141604 84 0 0.0 0.0 0.00 0.00 0.00 82 1016.7
20260904140107 83 0 0.0 0.0 0.00 0.00 0.00 87 1016.6
20260904134607 81 0 0.0 0.0 0.00 0.00 0.00 88 1016.5
20260904133110 80 0 0.0 0.0 0.00 0.00 0.00 91 1016.6
20260904131618 78 0 0.0 0.0 0.00 0.00 0.00 92 1016.7
20260904130118 77 0 0.0 0.0 0.00 0.00 0.00 94 1016.7
20260904124604 76 0 0.0 0.0 0.00 0.00 0.00 95 1016.7
20260904123106 74 0 0.0 0.0 0.00 0.00 0.00 96 1016.5
20260904121600 73 0 0.0 1.0 0.00 0.00 0.00 96 1016.5
20260904120104 72 0 0.0 0.0 0.00 0.00 0.00 96 1016.1
20260904114606 72 0 0.0 1.0 0.00 0.00 0.00 97 1016.0
20260904113100 72 0 0.0 0.0 0.00 0.00 0.00 96 1015.8
20260904111602 72 0 0.0 0.0 0.00 0.00 0.00 97 1015.6
20260904110111 72 0 0.0 0.0 0.00 0.00 0.00 97 1015.5
20260904104600 72 0 0.0 0.0 0.00 0.00 0.00 97 1015.4
20260904103059 72 0 0.0 0.0 0.00 0.00 0.00 97 1015.2
20260904101610 72 0 0.0 0.0 0.00 0.00 0.00 97 1015.3
20260904100109 71 0 0.0 0.0 0.00 0.00 0.00 97 1015.3
20260904094609 71 0 0.0 0.0 0.00 0.00 0.00 97 1015.3
20260904093059 71 0 0.0 1.0 0.00 0.00 0.00 97 1015.2
20260904091612 71 0 0.0 2.0 0.00 0.00 0.00 97 1015.1
20260904090101 71 0 0.0 2.0 0.00 0.00 0.00 97 1015.1
20260904084604 71 0 0.0 1.0 0.00 0.00 0.00 97 1015.1
20260904083106 72 0 0.0 0.0 0.00 0.00 0.00 97 1015.2
20260904081610 71 0 0.0 0.0 0.00 0.00 0.00 97 1015.2
20260904080059 71 0 0.0 0.0 0.00 0.00 0.00 97 1015.3
20260904074556 72 0 0.0 0.0 0.00 0.00 0.00 97 1015.5
20260904073115 72 0 0.0 0.0 0.00 0.00 0.00 97 1015.7
20260904071602 72 0 0.0 0.0 0.00 0.00 0.00 97 1015.7
20260904064556 72 0 0.0 0.0 0.00 0.00 0.00 97 1015.9
20260904063107 73 0 0.0 0.0 0.00 0.00 0.00 97 1016.0
20260904061557 73 0 0.0 0.0 0.00 0.00 0.00 96 1016.0
20260904060123 73 0 0.0 0.0 0.00 0.00 0.00 96 1016.2
20260904054635 73 0 0.0 0.0 0.00 0.00 0.00 96 1016.3
20260904053102 73 0 0.0 0.0 0.00 0.00 0.00 96 1016.2
20260904051601 74 0 0.0 0.0 0.00 0.00 0.00 96 1016.2